Location: Devore Heights
(34.2372°N, 117.4156°W)
Time: 01:59:15
(UTC+00:00)

SR - Pass Details

Date: 16 September 2024
Orbit: 578 x 855 km, 66.7° (Epoch: 02 October)

Event Time Altitude Azimuth Distance (km) Brightness Sun altitude
Rises 19:02:11 0° 164° (SSE) 2,849 ? 56.5°
Reaches altitude 10° 19:05:22 10° 139° (SE) 1,915 ? 56.7°
Maximum altitude 19:07:38 14° 107° (ESE) 1,644 ? 56.9°
Drops below altitude 10° 19:09:53 10° 74° (ENE) 1,893 ? 57.0°
Sets 19:13:00 0° 49° (NE) 2,793 ? 57.2°
